• In Hungary
  • List of Countries
  • For 7 days
  • Water Temperature
  • Satellite Maps
  • Weather Map
  • News
  • Weather Widgets
  • user-avatar
    Login

    Hourly Weather Mbandaka

    Today, 25 September, Monday

    Time Temperature Precipitation Wind Pressure Humidity
    00:00 +23°C° 0 mm 0 mps 731 mmHg 80%
    01:00 +23°C° 0 mm 0 mps 731 mmHg 82%
    02:00 +23°C° 0 mm 0 mps 731 mmHg 83%
    03:00 +22°C° 0 mm 0 mps 731 mmHg 84%
    04:00 +22°C° 0 mm 0 mps 731 mmHg 85%
    05:00 +23°C° 0.2 mm 0 mps 731 mmHg 84%
    06:00 +24°C° 0.2 mm 0 mps 731 mmHg 82%
    07:00 +27°C° 0 mm 1 mps 732 mmHg 78%
    08:00 +28°C° 0.6 mm 1 mps 732 mmHg 75%
    09:00 +30°C° 0.6 mm 1 mps 732 mmHg 72%
    10:00 +31°C° 0.6 mm 1 mps 732 mmHg 69%
    11:00 +32°C° 0.7 mm 1 mps 731 mmHg 64%
    12:00 +33°C° 0.7 mm 1 mps 731 mmHg 58%
    13:00 +34°C° 0.7 mm 1 mps 730 mmHg 53%
    14:00 +34°C° 0.1 mm 1 mps 730 mmHg 52%
    15:00 +34°C° 0.1 mm 1 mps 730 mmHg 50%
    16:00 +34°C° 0.1 mm 1 mps 729 mmHg 49%
    17:00 +32°C° 0 mm 1 mps 729 mmHg 56%
    18:00 +28°C° 0 mm 0 mps 729 mmHg 64%
    19:00 +26°C° 0 mm 0 mps 729 mmHg 71%
    20:00 +25°C° 0.1 mm 0 mps 730 mmHg 74%
    21:00 +25°C° 0.1 mm 0 mps 730 mmHg 78%
    22:00 +24°C° 0.1 mm 0 mps 730 mmHg 81%
    23:00 +23°C° 0.6 mm 0 mps 730 mmHg 86%

    Tomorrow, 26 September, Tuesday

    Time Temperature Precipitation Wind Pressure Humidity
    00:00 +24°C° 0.6 mm 1 mps 730 mmHg 92%
    01:00 +24°C° 0.6 mm 1 mps 730 mmHg 97%
    02:00 +24°C° 0 mm 1 mps 730 mmHg 97%
    03:00 +23°C° 0 mm 1 mps 729 mmHg 97%
    04:00 +21°C° 0 mm 0 mps 729 mmHg 98%
    05:00 +24°C° 0 mm 1 mps 730 mmHg 96%
    06:00 +24°C° 0 mm 1 mps 730 mmHg 95%
    07:00 +25°C° 0 mm 1 mps 731 mmHg 94%
    08:00 +27°C° 0.1 mm 1 mps 731 mmHg 83%
    09:00 +30°C° 0.1 mm 1 mps 732 mmHg 71%
    10:00 +32°C° 0.1 mm 1 mps 732 mmHg 60%
    11:00 +33°C° 1 mm 1 mps 731 mmHg 61%
    12:00 +33°C° 1 mm 1 mps 730 mmHg 63%
    13:00 +33°C° 1 mm 1 mps 729 mmHg 64%
    14:00 +33°C° 0.2 mm 1 mps 729 mmHg 60%
    15:00 +33°C° 0.2 mm 1 mps 728 mmHg 56%
    16:00 +34°C° 0.2 mm 1 mps 728 mmHg 52%
    17:00 +32°C° 0 mm 1 mps 728 mmHg 60%
    18:00 +30°C° 0 mm 1 mps 728 mmHg 67%
    19:00 +26°C° 0 mm 0 mps 729 mmHg 75%
    20:00 +25°C° 0.1 mm 0 mps 729 mmHg 77%
    21:00 +25°C° 0.1 mm 0 mps 730 mmHg 80%
    22:00 +24°C° 0.1 mm 0 mps 730 mmHg 83%
    23:00 +23°C° 0.8 mm 0 mps 730 mmHg 87%

    Day after tomorrow, 27 September, Wednesday

    Time Temperature Precipitation Wind Pressure Humidity
    00:00 +23°C° 0.8 mm 0 mps 730 mmHg 91%
    01:00 +22°C° 0.8 mm 0 mps 730 mmHg 96%
    02:00 +22°C° 0.4 mm 0 mps 730 mmHg 96%
    03:00 +22°C° 0.4 mm 0 mps 730 mmHg 97%
    04:00 +21°C° 0.4 mm 0 mps 730 mmHg 97%
    05:00 +22°C° 0.6 mm 0 mps 731 mmHg 96%
    06:00 +22°C° 0.6 mm 0 mps 731 mmHg 95%
    07:00 +23°C° 0.6 mm 0 mps 732 mmHg 94%
    08:00 +25°C° 1 mm 0 mps 732 mmHg 88%
    09:00 +26°C° 1 mm 0 mps 733 mmHg 81%
    10:00 +28°C° 1 mm 0 mps 733 mmHg 75%
    11:00 +31°C° 0.6 mm 1 mps 732 mmHg 66%
    12:00 +33°C° 0.6 mm 1 mps 731 mmHg 57%
    13:00 +35°C° 0.6 mm 1 mps 730 mmHg 48%
    14:00 +34°C° 0.1 mm 1 mps 730 mmHg 50%
    15:00 +33°C° 0.1 mm 1 mps 729 mmHg 52%
    16:00 +33°C° 0.1 mm 1 mps 729 mmHg 54%
    17:00 +30°C° 0.2 mm 1 mps 729 mmHg 64%
    18:00 +28°C° 0.2 mm 1 mps 730 mmHg 74%
    19:00 +26°C° 0.2 mm 1 mps 730 mmHg 84%
    20:00 +26°C° 0 mm 1 mps 730 mmHg 87%
    21:00 +25°C° 0 mm 1 mps 731 mmHg 90%
    22:00 +23°C° 0 mm 0 mps 731 mmHg 93%
    23:00 +23°C° 0 mm 0 mps 731 mmHg 93%

    28 September, Thursday

    Time Temperature Precipitation Wind Pressure Humidity
    00:00 +24°C° 0 mm 1 mps 730 mmHg 94%
    01:00 +24°C° 0 mm 1 mps 730 mmHg 95%
    02:00 +24°C° 0 mm 1 mps 730 mmHg 96%
    03:00 +24°C° 0 mm 1 mps 730 mmHg 96%
    04:00 +24°C° 0 mm 1 mps 730 mmHg 96%
    05:00 +24°C° 0 mm 1 mps 731 mmHg 94%
    06:00 +25°C° 0 mm 1 mps 732 mmHg 91%
    07:00 +25°C° 0 mm 1 mps 732 mmHg 89%
    08:00 +27°C° 0 mm 1 mps 733 mmHg 79%
    09:00 +29°C° 0 mm 1 mps 733 mmHg 68%
    10:00 +31°C° 0 mm 1 mps 733 mmHg 58%
    11:00 +33°C° 0 mm 1 mps 732 mmHg 52%
    12:00 +35°C° 0 mm 1 mps 731 mmHg 46%
    13:00 +36°C° 0 mm 1 mps 730 mmHg 40%
    14:00 +35°C° 0 mm 1 mps 730 mmHg 44%
    15:00 +34°C° 0 mm 1 mps 729 mmHg 48%
    16:00 +31°C° 0 mm 0 mps 729 mmHg 52%
    17:00 +30°C° 0 mm 0 mps 730 mmHg 56%
    18:00 +29°C° 0 mm 0 mps 730 mmHg 60%
    19:00 +27°C° 0 mm 0 mps 730 mmHg 64%
    20:00 +26°C° 0.1 mm 0 mps 730 mmHg 70%
    21:00 +27°C° 0.1 mm 1 mps 730 mmHg 75%
    22:00 +26°C° 0.1 mm 1 mps 730 mmHg 80%
    23:00 +26°C° 0 mm 1 mps 730 mmHg 82%

    29 September, Friday

    Time Temperature Precipitation Wind Pressure Humidity
    00:00 +25°C° 0 mm 1 mps 730 mmHg 83%
    01:00 +23°C° 0 mm 0 mps 730 mmHg 85%
    02:00 +25°C° 0 mm 1 mps 730 mmHg 86%
    03:00 +25°C° 0 mm 1 mps 730 mmHg 87%
    04:00 +24°C° 0 mm 1 mps 730 mmHg 88%
    05:00 +25°C° 0.7 mm 1 mps 731 mmHg 89%
    06:00 +25°C° 0.7 mm 1 mps 731 mmHg 90%
    07:00 +25°C° 0.7 mm 1 mps 732 mmHg 90%
    08:00 +27°C° 1.4 mm 1 mps 732 mmHg 88%
    09:00 +28°C° 1.4 mm 1 mps 732 mmHg 85%
    10:00 +29°C° 1.4 mm 1 mps 732 mmHg 83%
    11:00 +29°C° 2.1 mm 1 mps 731 mmHg 84%
    12:00 +29°C° 2.1 mm 1 mps 731 mmHg 86%
    13:00 +29°C° 2.1 mm 1 mps 730 mmHg 87%
    14:00 +28°C° 1.4 mm 1 mps 730 mmHg 90%
    15:00 +25°C° 1.4 mm 0 mps 730 mmHg 93%
    16:00 +24°C° 1.4 mm 0 mps 730 mmHg 96%
    17:00 +23°C° 0.3 mm 0 mps 730 mmHg 96%
    18:00 +23°C° 0.3 mm 0 mps 731 mmHg 96%
    19:00 +22°C° 0.3 mm 0 mps 731 mmHg 97%
    20:00 +22°C° 0.1 mm 0 mps 731 mmHg 97%
    21:00 +24°C° 0.1 mm 1 mps 731 mmHg 97%
    22:00 +24°C° 0.1 mm 1 mps 731 mmHg 97%
    23:00 +24°C° 0 mm 1 mps 730 mmHg 97%

    30 September, Saturday

    Time Temperature Precipitation Wind Pressure Humidity
    00:00 +24°C° 0 mm 1 mps 730 mmHg 97%
    01:00 +21°C° 0 mm 0 mps 730 mmHg 97%
    02:00 +21°C° 0 mm 0 mps 730 mmHg 97%
    03:00 +21°C° 0 mm 0 mps 730 mmHg 97%
    04:00 +21°C° 0 mm 0 mps 730 mmHg 98%
    05:00 +22°C° 0 mm 0 mps 731 mmHg 97%
    06:00 +22°C° 0 mm 0 mps 731 mmHg 96%
    07:00 +22°C° 0 mm 0 mps 732 mmHg 95%
    08:00 +24°C° 0 mm 0 mps 732 mmHg 86%
    09:00 +28°C° 0 mm 1 mps 732 mmHg 76%
    10:00 +30°C° 0 mm 1 mps 732 mmHg 67%
    11:00 +31°C° 0 mm 1 mps 731 mmHg 61%
    12:00 +33°C° 0 mm 1 mps 731 mmHg 54%
    13:00 +34°C° 0 mm 1 mps 730 mmHg 48%
    14:00 +33°C° 0 mm 1 mps 729 mmHg 50%
    15:00 +33°C° 0 mm 1 mps 729 mmHg 51%
    16:00 +33°C° 0 mm 1 mps 729 mmHg 53%
    17:00 +31°C° 0 mm 1 mps 729 mmHg 61%
    18:00 +29°C° 0 mm 1 mps 730 mmHg 69%
    19:00 +27°C° 0 mm 1 mps 730 mmHg 76%
    20:00 +26°C° 0 mm 1 mps 730 mmHg 79%
    21:00 +26°C° 0 mm 1 mps 730 mmHg 82%
    22:00 +25°C° 0 mm 1 mps 730 mmHg 84%
    23:00 +25°C° 0 mm 1 mps 730 mmHg 86%
    Show more